This demonstration page uses our WeatherBlox Daily Observations layout. Learn more.

Left ArrowRight Arrow

44.8408, -93.29828

Hourly Observations for February 2, 2019

Temp ( °F °C ) Dew Point ( °F °C ) Humidity (%) Winds ( mph kmh ) Pressure ( in mb ) Visibility ( mi km ) Precip ( " mm )
12:53 am 00:53 Partly Cloudy 13 -10.6 9 -12.8 84 84 SE 7 11 29.96 1015 8 13 0.00 0.00
1:53 am 01:53 Clear 15 -9.4 12 -11.1 88 88 SE 6 9 29.93 1014 8 13 0.00 0.00
2:53 am 02:53 Partly Cloudy 14 -10 11 -11.7 88 88 SE 8 13 29.92 1013 7 11 0.00 0.00
3:53 am 03:53 Mostly Cloudy with Mist and Fog 15 -9.4 12 -11.1 88 88 ESE 7 11 29.90 1013 6 10 0.00 0.00
4:53 am 04:53 Partly Cloudy with Mist and Fog 14 -10 12 -11.1 92 92 ENE 3 6 29.91 1013 5 8 0.00 0.00
5:53 am 05:53 Partly Cloudy with Mist and Fog 16 -8.9 14 -10 92 92 SSE 3 6 29.89 1012 5 8 0.00 0.00
6:53 am 06:53 Partly Cloudy with Mist and Fog 17 -8.3 15 -9.4 92 92 ESE 6 9 29.89 1012 5 8 0.00 0.00
7:53 am 07:53 Mostly Cloudy with Mist and Fog 17 -8.3 15 -9.4 92 92 E 3 6 29.89 1012 3 5 0.00 0.00
8:53 am 08:53 Mostly Cloudy with Mist and Fog 18 -7.8 17 -8.3 96 96 E 5 7 29.88 1012 3 4 0.00 0.00
9:25 am 09:25 Mostly Cloudy with Mist and Fog 20 -6.7 18 -7.8 92 92 ESE 7 11 29.90 1013 3 5 0.00 0.00
9:53 am 09:53 Mostly Cloudy with Mist and Fog 21 -6.1 19 -7.2 92 92 SE 6 9 29.87 1012 3 5 0.00 0.00
10:53 am 10:53 Hazy 29 -1.7 24 -4.4 82 82 E 5 7 29.86 1011 5 8 0.00 0.00
11:47 am 11:47 Mostly Cloudy 34 1 28 -2 81 81 S 6 9 29.84 1011 7 11 0.00 0.00
11:53 am 11:53 Mostly Cloudy 34 1.1 29 -1.7 82 82 S 8 13 29.83 1010 7 11 0.00 0.00
12:14 pm 12:14 Cloudy with Mist and Fog 35 1.7 33 0.6 93 93 SSW 8 13 29.83 1010 6 10 0.00 0.00
12:53 pm 12:53 Cloudy 37 2.8 34 1.1 89 89 VRB 7 11 29.80 1009 7 11 0.00 0.00
1:53 pm 13:53 Cloudy 37 2.8 35 1.7 93 93 S 7 11 29.77 1008 7 11 0.00 0.00
2:53 pm 14:53 Cloudy 37 2.8 35 1.7 93 93 S 8 13 29.76 1008 7 11 0.00 0.00
3:17 pm 15:17 Cloudy 37 2.8 35 1.7 93 93 S 7 11 29.77 1008 7 11 0.00 0.00
3:53 pm 15:53 Cloudy with Mist and Fog 37 2.8 35 1.7 93 93 S 6 9 29.75 1008 6 10 0.00 0.00
4:53 pm 16:53 Cloudy with Mist and Fog 37 2.8 36 2.2 96 96 S 6 9 29.73 1007 5 8 0.00 0.00
5:28 pm 17:28 Cloudy with Mist and Fog 35 1.7 35 1.7 100 100 SE 7 11 29.73 1007 2 3 0.00 0.00
5:53 pm 17:53 Cloudy with Mist and Fog 35 1.7 35 1.7 100 100 SSE 6 9 29.72 1006 2 3 0.00 0.00
6:02 pm 18:02 Cloudy with Mist and Fog 35 1.7 35 1.7 100 100 SSE 6 9 29.73 1007 2 3 0.00 0.00
6:28 pm 18:28 Cloudy with Mist and Fog 35 1.7 35 1.7 100 100 SSE 6 9 29.72 1006 1 2 0.00 0.00
6:53 pm 18:53 Cloudy with Mist and Fog 34 1.1 34 1.1 100 100 SSE 7 11 29.71 1006 1 2 0.00 0.00
7:19 pm 19:19 Cloudy with Mist and Fog 35 1.7 35 1.7 100 100 SE 7 11 29.71 1006 1 1 0.00 0.00
7:53 pm 19:53 Cloudy with Mist and Fog 35 1.7 35 1.7 100 100 SSE 6 9 29.70 1006 1 1 0.00 0.00
8:53 pm 20:53 Cloudy with Mist and Fog 37 2.8 37 2.8 100 100 S 9 15 29.67 1005 1 1 0.00 0.00
9:03 pm 21:03 Cloudy with Mist and Fog 37 2.8 37 2.8 100 100 S 10 17 29.68 1005 3 5 0.00 0.00
9:33 pm 21:33 Cloudy with Mist and Fog 38 3.3 38 3.3 100 100 S 9 15 29.67 1005 4 6 0.00 0.00
9:53 pm 21:53 Cloudy with Mist and Fog 38 3.3 38 3.3 100 100 S 7 11 29.67 1005 4 6 0.00 0.00
10:53 pm 22:53 Cloudy with Mist and Fog 39 3.9 39 3.9 100 100 S 9 15 29.66 1005 4 6 0.00 0.00
11:53 pm 23:53 Cloudy with Mist and Fog 39 3.9 39 3.9 100 100 S 8 13 29.64 1004 4 6 0.00 0.00

Powered by AerisWeather